Change the Weather History Date:

Friday, April 5, 2013

  Actual Average Record
Temperature  
Mean Temperature 50 °F -  
Max Temperature 68 °F 56 °F 75 °F (2006)
Min Temperature 32 °F 36 °F 19 °F (2014)
Degree Days  
Heating Degree Days 15    
Moisture  
Dew Point 33 °F    
Average Humidity 61    
Maximum Humidity 93    
Minimum Humidity 32    
Precipitation  
Precipitation 0.00 in - - ()
Sea Level Pressure  
Sea Level Pressure 30.04 in    
Wind  
Wind Speed 10 mph (East)    
Max Wind Speed 21 mph    
Max Gust Speed 28 mph    
Visibility 10 miles    
Events      
Averages and records for this station are not official NWS values.
T = Trace of Precipitation, MM = Missing Value Source: NWS Daily Summary

Daily Weather History Graph

Daily Weather History Graph

Search for Another Location

Airport or City:

Trip Planner

Search our weather history database for the weather conditions in past years. The results will help you decide how hot, cold, wet, or windy it might be!

Date:

Astronomy

Apr. 05, 2013 Rise Set
Actual Time 6:59 AM CDT 7:53 PM CDT
Civil Twilight 6:31 AM CDT 8:21 PM CDT
Nautical Twilight 5:58 AM CDT 8:54 PM CDT
Astronomical Twilight 5:24 AM CDT 9:29 PM CDT
Moon 4:10 AM CDT (4/5) 3:16 PM CDT (4/5)
Length of Visible Light 13h 49m
Length of Day
12h 53m
Waning Crescent, 23% of the Moon is Illuminated
Apr 5
Waning Crescent
Apr 10
New
Apr 18
First Quarter
Apr 25
Full
May 2
Last Quarter

Hourly Weather History & Observations

Time (CDT) Temp. Windchill Dew Point Humidity Pressure Visibility Wind Dir Wind Speed Gust Speed Precip Events Conditions
12:55 AM 43.9 °F 38.3 °F 29.8 °F 58% 30.13 in 10.0 mi NE 10.4 mph - N/A   Clear
1:55 AM 41.2 °F 38.2 °F 30.6 °F 66% 30.15 in 10.0 mi NE 4.6 mph - N/A   Clear
2:55 AM 37.8 °F 32.5 °F 30.4 °F 75% 30.15 in 10.0 mi NE 6.9 mph - N/A   Clear
3:55 AM 37.2 °F 31.9 °F 31.1 °F 79% 30.16 in 10.0 mi NE 6.9 mph - N/A   Clear
4:07 AM 37.4 °F 31.4 °F 30.2 °F 75% 30.16 in 10.0 mi NE 8.1 mph - N/A   Clear
4:24 AM 35.6 °F 29.9 °F 30.2 °F 81% 30.16 in 10.0 mi NE 6.9 mph - N/A   Clear
4:41 AM 35.6 °F 29.9 °F 30.2 °F 81% 30.16 in 10.0 mi NE 6.9 mph - N/A   Clear
4:55 AM 34.5 °F 27.9 °F 30.6 °F 85% 30.17 in 10.0 mi NE 8.1 mph - 0.00 in   Clear
5:07 AM 33.8 °F 27.7 °F 30.2 °F 87% 30.17 in 10.0 mi NE 6.9 mph - N/A   Clear
5:17 AM 33.8 °F 27.0 °F 30.2 °F 87% 30.17 in 10.0 mi NE 8.1 mph - N/A   Clear
5:30 AM 33.8 °F 28.6 °F 30.2 °F 87% 30.17 in 10.0 mi NNE 5.8 mph - N/A   Partly Cloudy
5:43 AM 33.8 °F 27.7 °F 32.0 °F 93% 30.17 in 10.0 mi NE 6.9 mph - N/A   Clear
5:55 AM 33.8 °F 27.7 °F 30.9 °F 89% 30.17 in 10.0 mi NE 6.9 mph - 0.00 in   Clear
6:00 AM 33.8 °F 28.6 °F 30.2 °F 87% 30.18 in 10.0 mi NNE 5.8 mph - N/A   Clear
6:55 AM 32.0 °F 28.7 °F 30.0 °F 92% 30.19 in 10.0 mi NE 3.5 mph - 0.00 in   Clear
7:55 AM 35.6 °F 31.7 °F 31.6 °F 85% 30.17 in 10.0 mi ESE 4.6 mph - N/A   Mostly Cloudy
8:55 AM 39.9 °F 34.5 °F 31.5 °F 72% 30.17 in 10.0 mi SE 8.1 mph - N/A   Clear
9:55 AM 46.0 °F 41.9 °F 31.8 °F 58% 30.17 in 10.0 mi ESE 8.1 mph - N/A   Partly Cloudy
10:55 AM 50.2 °F - 32.7 °F 51% 30.14 in 10.0 mi SE 15.0 mph - N/A   Partly Cloudy
11:55 AM 55.9 °F - 32.9 °F 42% 30.09 in 10.0 mi SSE 16.1 mph - N/A   Partly Cloudy
12:55 PM 61.2 °F - 35.1 °F 38% 30.05 in 10.0 mi SSE 15.0 mph 21.9 mph N/A   Partly Cloudy
1:55 PM 64.6 °F - 36.0 °F 35% 29.99 in 10.0 mi South 15.0 mph 24.2 mph N/A   Overcast
2:55 PM 66.6 °F - 37.0 °F 34% 29.94 in 10.0 mi South 17.3 mph 27.6 mph N/A   Overcast
3:55 PM 67.1 °F - 38.1 °F 34% 29.89 in 10.0 mi SSE 19.6 mph - N/A   Partly Cloudy
4:55 PM 68.4 °F - 37.9 °F 33% 29.84 in 10.0 mi SSE 20.7 mph - N/A   Clear
5:55 PM 68.4 °F - 37.8 °F 33% 29.81 in 10.0 mi SE 17.3 mph 25.3 mph N/A   Partly Cloudy
6:55 PM 68.2 °F - 37.0 °F 32% 29.80 in 10.0 mi SSE 16.1 mph - N/A   Clear
7:55 PM 66.2 °F - 36.1 °F 33% 29.78 in 10.0 mi SSE 16.1 mph 24.2 mph N/A   Clear
8:55 PM 63.3 °F - 36.7 °F 37% 29.77 in 10.0 mi SSE 17.3 mph - N/A   Clear
9:55 PM 61.7 °F - 37.2 °F 40% 29.76 in 10.0 mi SSE 16.1 mph 20.7 mph N/A   Clear
10:55 PM 60.4 °F - 37.9 °F 43% 29.73 in 10.0 mi SSE 20.7 mph 26.5 mph N/A   Clear
11:55 PM 59.4 °F - 37.9 °F 45% 29.72 in 10.0 mi SSE 13.8 mph - N/A   Scattered Clouds